Home > Time Zones > World Clock > Weather > Japan > Naha > Past weeks

Flag for Japan Weather past 2 weeks in Naha, Okinawa, Japan

Now
84 °F

Passing clouds.


Feels Like: 94 °F
Forecast: 81 / 86 °F
Wind: 8 mph from Southwest

Location: Naha Airport

Current Time: Sep 5, 2015 at 7:49:00 PM

Latest Report: Sep 5, 2015 at 7:30 PM


Visibility: N/A

Pressure: 29.77 "Hg

Humidity: 79%

Dew point: 77 °F

Location of NahaLocation

Historic Weather in Naha — Graph

°F

Naha temperature yesterday

Maximum temperature yesterday: 88 °F (at 1:30 PM)
Minimum temperature yesterday: 79 °F (at 6:00 AM)
Average temperature yesterday: 84 °F

Past Weeks' High & Low Weather Summary

 TemperatureHumidityPressure
High88 °F (Aug 22, 2:00 PM)94% (Aug 24, 10:49 AM)29.95 "Hg (Aug 24, 10:49 AM)
Low79 °F (Aug 22, 12:30 PM)62% (Aug 27, 1:30 PM)29.18 "Hg (Aug 24, 11:47 AM)
Average83 °F80%29.76 "Hg
* Reported Aug 21 6:00 PM — Sep 5 6:30 PM, Naha, Weather by CustomWeather, © 2015

Note: Actual official high and low records may vary slightly from our data, if they occured in-between our weather recording intervals... More about our weather records

Advertising

Naha weather history for previous 24 hours

 ConditionsComfort  
Time TempWeatherWind HumidityBarometerVisibility
6:30 PM
Sat, Sep 5
84 °FPartly sunny.9 mph74%29.77 "HgN/A
6:00 PM84 °FScattered clouds.9 mph74%29.77 "HgN/A
5:30 PM86 °FPassing clouds.10 mph70%29.77 "HgN/A
5:00 PM86 °FPassing clouds.10 mph70%29.77 "HgN/A
4:30 PM86 °FPassing clouds.10 mph70%29.77 "HgN/A
4:00 PM86 °FScattered clouds.10 mph70%29.77 "HgN/A
3:30 PM86 °FScattered clouds.10 mph75%29.77 "HgN/A
3:00 PM86 °FPartly sunny.10 mph70%29.77 "HgN/A
2:30 PM88 °FPassing clouds.12 mph66%29.80 "HgN/A
2:00 PM88 °FPassing clouds.10 mph70%29.80 "HgN/A
1:30 PM86 °FScattered clouds.10 mph75%29.83 "HgN/A
1:00 PM86 °FScattered clouds.10 mph75%29.83 "HgN/A
12:30 PM86 °FScattered clouds.10 mph70%29.83 "HgN/A
12:00 PM86 °FScattered clouds.10 mph70%29.83 "HgN/A
11:30 AM86 °FScattered clouds.10 mph75%29.86 "HgN/A
11:00 AM86 °FScattered clouds.9 mph75%29.86 "HgN/A
10:30 AM86 °FScattered clouds.8 mph70%29.86 "HgN/A
10:00 AM86 °FScattered clouds.9 mph70%29.86 "HgN/A
9:30 AM84 °FScattered clouds.7 mph79%29.86 "HgN/A
9:00 AM84 °FScattered clouds.6 mph79%29.86 "HgN/A
8:30 AM82 °FPartly sunny.5 mph84%29.86 "HgN/A
8:00 AM82 °FPassing clouds.3 mph84%29.86 "HgN/A
7:30 AM82 °FPassing clouds.2 mph84%29.86 "HgN/A
6:30 AM81 °FPassing clouds.2 mph89%29.86 "HgN/A
6:00 AM81 °FPassing clouds.3 mph84%29.86 "HgN/A
5:30 AM81 °FPassing clouds.2 mph84%29.86 "HgN/A
5:00 AM81 °FPassing clouds.2 mph84%29.86 "HgN/A
4:30 AM81 °FPassing clouds.3 mph84%29.86 "HgN/A
4:00 AM81 °FPassing clouds.3 mph84%29.86 "HgN/A
3:30 AM81 °FPassing clouds.2 mph84%29.86 "HgN/A
3:00 AM82 °FPassing clouds.2 mph79%29.86 "HgN/A
2:30 AM82 °FPassing clouds.1 mph79%29.86 "HgN/A
2:00 AM82 °FPassing clouds.3 mph79%29.86 "HgN/A
1:30 AM82 °FPassing clouds.5 mph79%29.89 "HgN/A
1:00 AM82 °FPassing clouds.5 mph79%29.89 "HgN/A
12:30 AM82 °FPassing clouds.6 mph79%29.89 "HgN/A
12:00 AM82 °FPassing clouds.5 mph79%29.89 "HgN/A
11:30 PM
Fri, Sep 4
82 °FPassing clouds.3 mph84%29.89 "HgN/A
11:00 PM82 °FPassing clouds.5 mph84%29.89 "HgN/A
10:30 PM82 °FPassing clouds.5 mph79%29.89 "HgN/A
10:00 PM82 °FScattered showers. Passing clouds.3 mph84%29.89 "HgN/A
9:30 PM82 °FRain showers. Passing clouds.3 mph84%29.89 "HgN/A
9:00 PM82 °FScattered showers. Passing clouds.3 mph84%29.89 "HgN/A
8:30 PM82 °FPassing clouds.3 mph79%29.89 "HgN/A
8:00 PM82 °FPassing clouds.3 mph79%29.89 "HgN/A
7:30 PM82 °FPassing clouds.3 mph79%29.89 "HgN/A
7:00 PM82 °FPassing clouds.3 mph79%29.89 "HgN/A
Weather by CustomWeather, © 2015

See weather overviewHow to use our weather pages